Driggs, ID

12:54 AM MDT on March 30, 2017 (GMT -0600)
Driggs

Weather History for KDIJ - May, 2013

Change the Weather History Date:

Monday, May 13, 2013

  Actual Average (KJAC) Record (KJAC)
Temperature  
Mean Temperature 64 °F -  
Max Temperature 79 °F 59 °F 78 °F (2013)
Min Temperature 50 °F 27 °F 14 °F (1985)
Growing Degree Days 14 (Base 50)    
Moisture  
Dew Point 34 °F    
Average Humidity 32    
Maximum Humidity 59    
Minimum Humidity 17    
Precipitation  
Precipitation 0.00 in - - ()
Sea Level Pressure  
Sea Level Pressure 29.93 in    
Wind  
Wind Speed 11 mph (South)    
Max Wind Speed 20 mph    
Max Gust Speed 29 mph    
Visibility 10 miles    
Events      
Averages and records for this station are not official NWS values.
T = Trace of Precipitation, MM = Missing Value Source: NWS Daily Summary

Daily Weather History Graph

Daily Weather History Graph

Search for Another Location

Airport or City:

Trip Planner

Search our weather history database for the weather conditions in past years. The results will help you decide how hot, cold, wet, or windy it might be!

Date:

Astronomy

May. 13, 2013 Rise Set
Actual Time 6:00 AM MDT 8:41 PM MDT
Civil Twilight 5:27 AM MDT 9:14 PM MDT
Nautical Twilight 4:46 AM MDT 9:55 PM MDT
Astronomical Twilight 3:59 AM MDT 10:43 PM MDT
Moon 8:49 AM MDT (5/13) 11:52 PM MDT (5/13)
Length of Visible Light 15h 46m
Length of Day
14h 40m
Waxing Crescent, 12% of the Moon is Illuminated
May 13
Waxing Crescent
May 17
First Quarter
May 24
Full
May 31
Last Quarter
Jun 8
New

Hourly Weather History & Observations

Time (MDT) Temp. Dew Point Humidity Pressure Visibility Wind Dir Wind Speed Gust Speed Precip Events Conditions
12:56 AM 59.9 °F 32.0 °F 35% 29.97 in 10.0 mi SSE 8.1 mph - N/A   Clear
1:56 AM 59.9 °F 32.0 °F 35% 29.97 in 10.0 mi SSE 11.5 mph - N/A   Clear
2:56 AM 57.9 °F 32.9 °F 39% 29.97 in 10.0 mi SSE 11.5 mph - N/A   Clear
3:56 AM 55.9 °F 32.0 °F 40% 29.98 in 10.0 mi SE 8.1 mph - N/A   Clear
4:56 AM 54.0 °F 32.9 °F 45% 29.98 in 10.0 mi ESE 8.1 mph - N/A   Clear
5:56 AM 50.0 °F 34.9 °F 56% 30.00 in 10.0 mi East 10.4 mph - N/A   Clear
6:56 AM 50.9 °F 36.9 °F 59% 30.01 in 10.0 mi East 8.1 mph - N/A   Clear
7:56 AM 57.9 °F 41.9 °F 55% 30.00 in 10.0 mi East 5.8 mph - N/A   Clear
8:56 AM 64.9 °F 36.9 °F 35% 30.00 in 10.0 mi South 4.6 mph - N/A   Clear
9:56 AM 72.0 °F 32.0 °F 23% 29.97 in 10.0 mi SSW 16.1 mph 21.9 mph N/A   Clear
10:56 AM 74.8 °F 32.9 °F 22% 29.96 in 10.0 mi South 19.6 mph - N/A   Clear
11:56 AM 77.9 °F 32.9 °F 19% 29.95 in 10.0 mi SW 15.0 mph 25.3 mph N/A   Clear
12:56 PM 77.9 °F 32.9 °F 19% 29.94 in 10.0 mi WSW 11.5 mph 23.0 mph N/A   Partly Cloudy
1:24 PM 78.8 °F 30.2 °F 17% 30.20 in 10.0 mi SW 16.1 mph 23.0 mph N/A   Partly Cloudy
2:56 PM 79.9 °F 32.0 °F 18% 29.90 in 10.0 mi West 19.6 mph 28.8 mph N/A   Scattered Clouds
3:56 PM 77.9 °F 32.0 °F 19% 29.89 in 10.0 mi WSW 15.0 mph 28.8 mph N/A   Partly Cloudy
4:56 PM 77.9 °F 31.1 °F 18% 29.87 in 10.0 mi WSW 15.0 mph - N/A   Scattered Clouds
5:56 PM 77.0 °F 32.0 °F 19% 29.86 in 10.0 mi SW 13.8 mph - N/A   Partly Cloudy
6:56 PM 75.9 °F 34.0 °F 22% 29.84 in 10.0 mi SW 16.1 mph - N/A   Partly Cloudy
7:56 PM 72.0 °F 37.9 °F 29% 29.82 in 10.0 mi South 8.1 mph - 0.00 in   Partly Cloudy
8:56 PM 64.9 °F 36.9 °F 35% 29.81 in 10.0 mi SSE 10.4 mph - N/A   Scattered Clouds
9:56 PM 63.0 °F 34.9 °F 35% 29.82 in 10.0 mi South 10.4 mph - N/A   Clear
10:56 PM 59.0 °F 34.0 °F 39% 29.82 in 10.0 mi SE 8.1 mph - N/A   Partly Cloudy
11:56 PM 61.0 °F 34.9 °F 38% 29.80 in 10.0 mi SSE 6.9 mph - N/A   Overcast